Notices

What's New in latest Release from April 7th, 2021:

- Updated Glossary, including Speed of Maximum Gust, and Total Hourly Precipitation

- Updated national and regional climate services offices contacts and prices information

- Addition of station inventory lists for 1981-2010, 1971-2000, and 1961-1990 Normals.

If you haven't already, please take our survey and provide feedback about our website: https://eccc.sondage-survey.ca/f/LanguageSelection.aspx?s=442ca660-fcf1-47c0-95a9-59707d6fd709

Hourly Data Report for January 02, 2021

EDMUNDSTON
NEW BRUNSWICK
Current Station Operator: ECCC - MSC

47°25'00.000" N
68°19'28.040" W
154.20 m
8101303
71590
ERM

Download Data

Hourly Data (January 2021)
Hourly Data Report for January 2, 2021
TIME
LST
Temp Definition
°C
Dew Point Definition
°C
Rel Hum Definition
%
Precip. Amount Definition
mm

Wind Dir Definition
10's deg

Wind Spd Definition
km/h
Visibility Definition
km
Stn Press Definition
kPa
Hmdx Definition


Wind Chill Definition


Weather Definition


00:00 -12.5 LegendMM LegendMM 0.0 28 2   100.55   -14 LegendNANA
01:00 -12.4 LegendMM LegendMM 0.0   0   100.53     LegendNANA
02:00 -12.4 LegendMM LegendMM 0.0   0   100.44     LegendNANA
03:00 -12.1 LegendMM LegendMM 0.0   0   100.35     LegendNANA
04:00 -11.6 LegendMM LegendMM 0.0 20 1   100.30   -12 LegendNANA
05:00 -10.9 LegendMM LegendMM 0.0 0 1   100.23   -12 LegendNANA
06:00 -10.1 LegendMM LegendMM 0.0 10 4   100.09   -12 LegendNANA
07:00 -9.3 LegendMM LegendMM 0.0 13 5   99.96   -12 LegendNANA
08:00 -9.1 LegendMM LegendMM 0.0 2 1   99.83   -10 LegendNANA
09:00 -9.1 LegendMM LegendMM 0.0 13 4   99.73   -11 LegendNANA
10:00 -8.8 LegendMM LegendMM 0.7 0 1   99.66   -9 LegendNANA
11:00 -8.2 LegendMM LegendMM 1.0 28 2   99.51   -9 LegendNANA
12:00 -7.5 LegendMM LegendMM 0.7 29 2   99.39   -9 LegendNANA
13:00 -6.6 LegendMM LegendMM 1.0 26 2   99.28   -8 LegendNANA
14:00 -6.1 LegendMM LegendMM 1.2 27 1   99.26   -7 LegendNANA
15:00 -5.9 LegendMM LegendMM 0.8 27 2   99.24   -7 LegendNANA
16:00 -5.7 LegendMM LegendMM 0.9 29 2   99.27   -7 LegendNANA
17:00 -5.9 LegendMM LegendMM 0.2 29 2   99.30   -7 LegendNANA
18:00 -6.4 LegendMM LegendMM 0.0 29 4   99.42   -8 LegendNANA
19:00 -7.5 LegendMM LegendMM 0.2 0 1   99.48   -8 LegendNANA
20:00 -10.1 LegendMM LegendMM 0.0 33 4   99.58   -12 LegendNANA
21:00 -10.4 LegendMM LegendMM 0.0 35 4   99.66   -13 LegendNANA
22:00 -12.0 LegendMM LegendMM 0.0 33 7   99.74   -16 LegendNANA
23:00 -12.4 LegendMM LegendMM 0.0 30 2   99.83   -14 LegendNANA

Notes on Data Quality.

Legend

  • E = Estimated
  • M = Missing
  • NA = Not Available*
  • [empty] = Indicates an unobserved value
Date modified: